Orbital Elements at Epoch 2459200.5 (2020-Dec-17.0) TDB
Reference: JPL 37 (heliocentric ecliptic J2000)
Element | Value | Uncertainty (1-sigma) | Units |
e | .2106266168175875 | 2.9126e-08 | |
a | 2.244435479681206 | 6.0472e-09 | au |
q | 1.771697627930594 | 6.485e-08 | au |
i | 5.416693005002143 | 3.732e-06 | deg |
node | 205.9369504335376 | 3.6027e-05 | deg |
peri | 57.09636287113563 | 3.7066e-05 | deg |
M | 63.87219847284045 | 9.1442e-06 | deg |
tp | 2458982.594356105724 (2020-May-13.09435611) | 3.095e-05 | TDB |
period | 1228.171781738437 3.36 | 4.9636e-06 1.359e-08 | d yr |
n | .2931186055182214 | 1.1846e-09 | deg/d |
Q | 2.717173331431818 | 7.3209e-09 | au |
|
| | Orbit Determination Parameters
Additional Information
|